CW9414 Weather Reports


Display with metric or nautical units.
time (UTC)temp
F
wind
direction
speed
MPH
gust
MPH
rain 1hr
in
rain 24hr
in
rain mn
in
humidity
%
barometer
mb
20260510182409 90 158 0.0 11.0 0.00 0.00 0.00 56 1009.3
20260510181409 90 156 1.0 3.0 0.00 0.00 0.00 57 1009.3
20260510180415 90 150 4.0 4.0 0.00 0.00 0.00 60 1009.3
20260510175409 89 108 2.0 5.0 0.00 0.00 0.00 59 1009.5
20260510174409 89 109 1.0 3.0 0.00 0.00 0.00 61 1009.7
20260510173409 89 121 1.0 4.0 0.00 0.00 0.00 62 1009.7
20260510172409 88 192 1.0 3.0 0.00 0.00 0.00 64 1009.9
20260510171410 88 195 0.0 3.0 0.00 0.00 0.00 65 1010.2
20260510170409 88 200 1.0 4.0 0.00 0.00 0.00 65 1010.2
20260510165412 87 277 1.0 5.0 0.00 0.00 0.00 65 1010.2
20260510164409 87 355 4.0 9.0 0.00 0.00 0.00 67 1010.3
20260510163412 86 17 0.0 3.0 0.00 0.00 0.00 69 1010.3
20260510162412 85 15 1.0 5.0 0.00 0.00 0.00 72 1010.3
20260510161411 84 129 0.0 3.0 0.00 0.00 0.00 73 1010.6
20260510160412 83 129 1.0 3.0 0.00 0.00 0.00 75 1010.6
20260510155408 82 129 0.0 2.0 0.00 0.00 0.00 78 1010.8
20260510154412 81 129 0.0 2.0 0.00 0.00 0.00 79 1010.8
20260510153408 81 129 0.0 1.0 0.00 0.00 0.00 81 1010.8
20260510152408 80 129 0.0 2.0 0.00 0.00 0.00 82 1010.8
20260510151409 79 129 0.0 1.0 0.00 0.00 0.00 85 1010.8
20260510150411 79 129 0.0 3.0 0.00 0.00 0.00 86 1010.8
20260510145410 78 129 0.0 1.0 0.00 0.00 0.00 88 1010.8
20260510144409 78 129 0.0 2.0 0.00 0.00 0.00 90 1010.8
20260510143408 77 129 1.0 2.0 0.00 0.00 0.00 91 1010.8
20260510142409 77 129 0.0 1.0 0.00 0.00 0.00 92 1010.7
20260510141412 76 129 0.0 1.0 0.00 0.00 0.00 92 1010.5
20260510140409 76 129 0.0 0.0 0.00 0.00 0.00 92 1010.5
20260510135408 76 129 0.0 0.0 0.00 0.00 0.00 93 1010.2
20260510134412 75 129 0.0 0.0 0.00 0.00 0.00 93 1010.1
20260510133408 75 129 0.0 0.0 0.00 0.00 0.00 93 1010.1
20260510132408 75 129 0.0 0.0 0.00 0.00 0.00 93 1009.8
20260510131408 75 129 0.0 0.0 0.00 0.00 0.00 93 1009.6
20260510130408 75 129 0.0 0.0 0.00 0.00 0.00 93 1009.6
20260510125409 74 129 0.0 0.0 0.00 0.00 0.00 92 1009.2
20260510124409 74 129 0.0 0.0 0.00 0.00 0.00 92 1008.9
20260510123408 74 129 0.0 0.0 0.00 0.00 0.00 92 1008.9
20260510122408 74 129 0.0 0.0 0.00 0.00 0.00 92 1008.6
20260510121411 74 129 0.0 0.0 0.00 0.00 0.00 91 1008.1
20260510120409 74 129 0.0 0.0 0.00 0.00 0.00 91 1008.1
20260510115411 74 129 0.0 0.0 0.00 0.00 0.00 92 1007.9
20260510114408 74 129 0.0 0.0 0.00 0.00 0.00 92 1007.6
20260510113408 74 129 0.0 1.0 0.00 0.00 0.00 92 1007.6
20260510112411 74 129 0.0 3.0 0.00 0.00 0.00 92 1007.3
20260510111408 74 129 1.0 4.0 0.00 0.00 0.00 92 1007.2
20260510110408 74 129 1.0 3.0 0.00 0.00 0.00 92 1007.2
20260510105408 74 129 0.0 0.0 0.00 0.00 0.00 91 1007.1
20260510104411 74 129 2.0 4.0 0.00 0.00 0.00 92 1007.1
20260510103409 74 129 0.0 4.0 0.00 0.00 0.00 92 1007.1
20260510102408 74 177 0.0 3.0 0.00 0.00 0.00 92 1007.0
20260510101412 74 161 0.0 5.0 0.00 0.00 0.00 91 1006.8
20260510100408 74 165 1.0 7.0 0.00 0.00 0.00 91 1006.8
20260510095407 74 150 0.0 3.0 0.00 0.00 0.00 91 1006.7
20260510094407 74 154 0.0 4.0 0.00 0.00 0.00 91 1006.7
20260510093411 74 153 1.0 6.0 0.00 0.00 0.00 91 1006.7
20260510092407 74 165 0.0 3.0 0.00 0.00 0.00 90 1006.9
20260510091408 74 165 2.0 3.0 0.00 0.00 0.00 90 1007.0
20260510090407 74 165 0.0 3.0 0.00 0.00 0.00 89 1007.0
20260510085408 74 165 0.0 2.0 0.00 0.00 0.00 89 1007.1
20260510084408 74 165 1.0 2.0 0.00 0.00 0.00 89 1007.0
20260510083411 74 165 1.0 2.0 0.00 0.00 0.00 89 1007.0
20260510082407 74 165 0.0 1.0 0.00 0.00 0.00 89 1007.1
20260510081407 75 165 0.0 0.0 0.00 0.00 0.00 89 1007.1
20260510080407 75 165 0.0 2.0 0.00 0.00 0.00 89 1007.1
20260510075407 75 165 0.0 2.0 0.00 0.00 0.00 88 1006.9
20260510074411 75 165 0.0 2.0 0.00 0.00 0.00 88 1006.9
20260510073407 75 165 0.0 3.0 0.00 0.00 0.00 88 1006.9
20260510072408 75 165 0.0 1.0 0.00 0.00 0.00 87 1007.0
20260510071407 75 165 0.0 1.0 0.00 0.00 0.00 87 1007.0
20260510070408 75 165 0.0 1.0 0.00 0.00 0.00 87 1007.0
20260510065408 75 165 0.0 2.0 0.00 0.00 0.00 87 1007.0
20260510064411 75 165 0.0 3.0 0.00 0.00 0.00 86 1007.0
20260510063407 75 173 4.0 5.0 0.00 0.00 0.00 86 1007.0
20260510062407 75 178 0.0 4.0 0.00 0.00 0.00 86 1007.1
20260510061407 75 178 0.0 4.0 0.00 0.00 0.00 86 1007.3
20260510060407 75 178 0.0 3.0 0.00 0.00 0.00 86 1007.3
20260510055407 75 178 0.0 2.0 0.00 0.00 0.00 86 1007.3
20260510054407 75 178 1.0 3.0 0.00 0.00 0.00 85 1007.5
20260510053407 74 178 0.0 1.0 0.00 0.00 0.00 85 1007.5
20260510052407 74 178 0.0 3.0 0.00 0.00 0.00 84 1007.4
20260510051408 74 178 1.0 2.0 0.00 0.00 0.00 84 1007.5
20260510050410 74 178 0.0 4.0 0.00 0.00 0.15 83 1007.5
20260510045407 74 178 0.0 1.0 0.00 0.00 0.15 83 1007.4
20260510044408 73 178 0.0 0.0 0.00 0.00 0.15 82 1007.6
20260510043408 73 178 0.0 0.0 0.00 0.00 0.15 82 1007.6
20260510042407 73 178 0.0 0.0 0.00 0.00 0.15 82 1007.6
20260510041410 73 178 0.0 1.0 0.00 0.00 0.15 83 1007.5
20260510040408 73 178 0.0 1.0 0.00 0.00 0.15 83 1007.5
20260510035408 73 178 0.0 2.0 0.00 0.00 0.15 83 1007.6
20260510034407 73 178 0.0 2.0 0.00 0.00 0.15 83 1007.7
20260510033407 73 178 0.0 0.0 0.00 0.00 0.15 83 1007.7
20260510032407 73 178 0.0 0.0 0.00 0.00 0.15 83 1007.6
20260510031407 73 178 0.0 0.0 0.00 0.00 0.15 82 1007.2
20260510030407 73 178 0.0 0.0 0.00 0.00 0.15 82 1007.2
20260510025408 73 178 0.0 0.0 0.00 0.00 0.15 82 1006.7
20260510024408 73 178 0.0 1.0 0.00 0.00 0.15 82 1006.3
20260510023407 73 178 0.0 1.0 0.00 0.00 0.15 82 1006.3
20260510022411 73 178 0.0 1.0 0.00 0.00 0.15 81 1006.0
20260510021410 73 178 0.0 1.0 0.00 0.00 0.15 81 1005.4
20260510020407 73 178 0.0 0.0 0.00 0.00 0.15 79 1005.4
20260510015407 73 178 0.0 0.0 0.00 0.00 0.15 79 1004.9
20260510014408 73 178 0.0 0.0 0.00 0.00 0.15 78 1004.9
20260510013407 73 178 0.0 0.0 0.00 0.00 0.15 78 1004.9
20260510012407 73 178 0.0 0.0 0.00 0.00 0.15 78 1004.8
20260510011408 73 178 0.0 0.0 0.00 0.00 0.15 77 1004.9
20260510010408 73 178 0.0 0.0 0.00 0.00 0.15 76 1004.9
20260510005408 73 178 0.0 0.0 0.00 0.00 0.15 75 1004.4
20260510004408 73 178 0.0 2.0 0.00 0.00 0.15 75 1004.4
20260510003407 73 178 0.0 2.0 0.00 0.00 0.15 75 1004.4
20260510002407 73 180 0.0 0.0 0.00 0.00 0.15 74 1005.0
20260510001407 73 163 1.0 4.0 0.00 0.00 0.15 71 1005.8
20260510000408 75 145 0.0 2.0 0.00 0.00 0.15 70 1005.8
20260509235407 77 155 2.0 12.0 0.00 0.00 0.13 63 1005.0
20260509234411 82 189 3.0 16.0 0.00 0.00 0.06 55 1004.6
20260509233407 86 202 2.0 8.0 0.00 0.00 0.00 49 1004.7
20260509232407 89 138 0.0 5.0 0.00 0.00 0.00 54 1004.3
20260509231407 90 311 0.0 3.0 0.00 0.00 0.00 52 1004.1
20260509230407 91 311 0.0 0.0 0.00 0.00 0.00 51 1004.1
20260509225407 92 311 0.0 2.0 0.00 0.00 0.00 51 1003.8
20260509224407 93 311 0.0 1.0 0.00 0.00 0.00 49 1003.9
20260509223410 94 311 0.0 3.0 0.00 0.00 0.00 48 1003.9
20260509222410 95 313 1.0 2.0 0.00 0.00 0.00 49 1003.6
20260509221407 95 313 0.0 3.0 0.00 0.00 0.00 49 1003.6
20260509220407 94 313 0.0 3.0 0.00 0.00 0.00 49 1003.6
20260509215407 94 313 1.0 2.0 0.00 0.00 0.00 50 1003.7
20260509214408 94 313 0.0 3.0 0.00 0.00 0.00 52 1003.7
20260509213407 93 313 0.0 3.0 0.00 0.00 0.00 51 1003.7
20260509212407 93 313 0.0 5.0 0.00 0.00 0.00 52 1003.8
20260509211407 93 313 1.0 4.0 0.00 0.00 0.00 55 1004.1
20260509210407 92 300 0.0 1.0 0.00 0.00 0.00 55 1004.1
20260509205407 92 300 2.0 4.0 0.00 0.00 0.00 54 1004.4
20260509204407 92 300 1.0 5.0 0.00 0.00 0.00 55 1004.5
20260509203407 91 302 0.0 3.0 0.00 0.00 0.00 56 1004.5
20260509202410 91 302 0.0 3.0 0.00 0.00 0.00 56 1004.6
20260509201410 90 302 0.0 2.0 0.00 0.00 0.00 58 1004.7
20260509200406 90 302 1.0 3.0 0.00 0.00 0.00 57 1004.7
20260509195407 90 303 1.0 5.0 0.00 0.00 0.00 57 1004.9
20260509194407 90 304 0.0 4.0 0.00 0.00 0.00 61 1005.1
20260509193407 89 304 1.0 4.0 0.00 0.00 0.00 60 1005.1
20260509192407 88 304 1.0 5.0 0.00 0.00 0.00 59 1005.1
20260509191407 88 306 4.0 7.0 0.00 0.00 0.00 61 1005.1
20260509190407 87 140 1.0 2.0 0.00 0.00 0.00 64 1005.1
20260509185406 86 140 1.0 3.0 0.00 0.00 0.00 64 1005.2
20260509184407 86 140 0.0 3.0 0.00 0.00 0.00 64 1005.6
20260509183407 86 140 1.0 3.0 0.00 0.00 0.00 66 1005.6